Location: Henham
(51.9333°N, 0.2500°E)
Time: 15:39:47
(UTC+00:00)

Cosmos 2297 Rocket - Pass Details

Date: 23 October 2019
Orbit: 841 x 842 km, 71.0° (Epoch: 12 November)

Event Time Altitude Azimuth Distance (km) Brightness Sun altitude
Rises 20:55:29 0° 330° (NNW) 3,409 6.1 -37.3°
Reaches altitude 10° 20:58:07 10° 338° (NNW) 2,471 5.2 -37.7°
Enters shadow 21:00:08 21° 350° (N) 1,820 4.2 -37.9°
